Wind_Speed
12 9 7 4 1 2 4 7 6 13 6 7 4 7 5 5 3 3 15 9 17 24 34 31 27 25 23 21 20 19 19 20 21 18 18 17 17 15 15 16 16 16 16 16 16 16 15 14 14
8 7 6 5 4 6 7 8 13 15 18 3 4 4 5 2 4 13 17 16 19 21 34 30 27 24 21 20 20 20 20 21 22 20 18 17 16 17 17 17 16 16 16 16 15 14 14 14 14
5 6 3 3 5 16 6 9 13 14 26 7 4 1 3 7 8 24 15 24 24 20 33 31 27 24 21 20 20 20 21 22 21 20 20 18 19 18 18 17 16 16 16 15 14 13 13 14 15
4 5 7 5 17 8 15 9 19 11 20 13 11 5 6 8 16 20 25 27 25 22 32 30 27 23 22 21 19 20 21 22 23 22 21 21 20 20 19 17 17 16 15 14 12 11 12 13 14
5 6 5 9 22 9 9 19 31 16 16 11 10 6 12 16 11 19 33 30 26 25 30 30 27 24 23 21 19 20 21 23 22 23 21 23 21 20 17 16 16 15 14 12 11 11 11 11 13
4 5 6 19 18 10 14 33 27 18 23 22 7 8 10 16 16 22 34 29 25 24 30 30 28 25 24 21 20 19 20 23 24 23 22 21 21 19 17 17 16 15 13 12 11 10 9 11 13
4 2 11 17 13 9 13 29 16 11 13 15 16 4 8 18 17 29 32 29 28 23 28 28 30 27 25 22 20 19 20 22 23 22 22 21 21 18 16 17 16 14 13 12 10 9 6 10 13
5 2 6 8 12 13 12 19 22 13 18 24 20 3 5 19 21 32 30 32 28 25 27 28 31 29 27 24 21 19 20 22 24 22 22 22 19 19 17 16 15 14 13 10 9 8 7 10 15
9 3 12 12 5 11 23 16 17 22 13 23 10 22 17 18 24 39 34 31 31 28 28 30 33 32 29 26 23 20 20 22 23 24 22 22 21 19 17 16 15 13 12 10 7 8 9 12 17
5 4 5 5 7 8 16 16 19 14 21 21 6 9 13 16 29 37 40 39 38 34 31 30 33 35 32 28 26 22 21 23 24 23 24 22 20 19 18 16 15 13 11 8 8 9 11 15 19
5 12 10 16 21 21 12 19 18 6 7 7 12 20 20 28 27 36 40 41 42 37 31 31 35 35 34 31 28 26 23 22 21 22 22 21 20 19 18 16 15 13 11 9 10 10 11 16 19
7 15 17 14 19 20 12 20 12 18 18 24 32 26 23 26 27 40 39 40 41 36 32 30 33 35 35 32 31 28 25 24 23 22 22 22 21 19 18 15 14 13 10 8 10 10 9 11 15
8 8 17 21 23 23 27 16 15 28 24 25 27 22 19 36 32 38 40 36 38 36 34 33 31 33 35 33 31 29 27 24 22 22 24 23 21 19 17 15 15 12 10 12 10 8 10 14 15
10 20 21 24 24 22 16 16 14 36 25 32 30 26 27 20 32 29 38 35 37 37 39 36 35 33 34 33 31 30 28 24 22 22 26 25 21 18 19 16 14 14 14 14 13 11 12 14 16
14 8 14 16 12 11 20 17 24 29 34 30 29 29 33 20 28 31 30 40 41 41 43 38 36 35 33 33 29 28 30 27 24 21 25 27 24 20 21 18 20 20 19 15 14 14 13 13 15
13 7 7 13 10 14 16 23 17 25 35 32 31 27 29 31 20 27 30 36 40 43 45 41 42 38 35 34 31 30 29 31 28 26 24 28 24 22 22 23 23 22 20 17 15 15 14 14 15
5 8 9 13 11 15 12 21 17 31 32 31 30 26 23 29 23 28 25 34 38 42 45 45 45 42 36 34 33 33 33 33 30 28 26 28 27 25 26 25 24 24 23 19 17 17 16 16 17
5 6 11 14 15 12 15 14 7 19 25 22 25 27 27 25 17 21 24 36 38 38 42 44 45 41 39 36 34 32 35 34 32 29 27 26 31 28 26 26 25 26 24 21 19 18 17 17 17
15 19 21 20 20 15 17 16 12 10 18 15 21 22 25 30 28 23 22 33 34 38 38 41 41 49 41 40 39 36 37 37 33 31 28 27 31 31 28 28 29 28 26 23 20 19 20 20 20
20 21 21 22 15 11 17 19 15 13 16 22 24 23 20 25 35 27 25 28 29 39 39 39 40 42 44 46 41 38 39 38 33 32 29 31 30 30 31 30 31 29 27 24 24 23 23 24 23
17 17 18 20 15 18 16 18 16 11 15 24 29 32 27 28 28 31 26 22 30 44 39 37 40 39 41 38 36 37 35 38 35 33 34 35 34 33 31 31 31 30 27 27 25 25 26 25 25
22 21 20 19 14 15 11 10 16 14 16 18 25 27 29 30 30 30 27 30 31 42 40 38 37 41 43 45 43 41 40 42 41 40 36 36 35 34 33 31 31 31 29 27 24 26 26 25 27
11 12 16 18 17 12 15 5 6 13 17 17 15 27 31 30 33 23 35 21 35 38 35 35 36 37 40 39 41 42 44 41 41 38 38 38 37 35 33 32 33 32 30 27 26 27 27 27 27
15 12 18 12 9 10 12 11 13 13 23 21 21 30 32 30 32 32 30 32 25 37 35 37 38 35 38 37 37 40 42 44 43 42 41 40 39 35 35 34 35 33 31 29 29 29 28 28 28
7 5 2 2 4 5 5 10 20 12 20 22 21 27 33 35 32 34 30 30 25 34 37 37 38 37 37 38 39 40 43 43 42 42 42 42 42 40 38 37 38 36 34 31 32 31 30 30 31
11 3 1 4 2 5 5 6 8 16 21 29 36 32 31 34 37 41 37 31 25 31 40 36 37 38 39 38 39 41 39 42 44 43 41 42 40 40 38 38 38 37 36 34 33 33 32 32 31
3 4 5 3 4 3 4 5 10 9 9 21 17 22 23 32 37 39 42 31 28 33 35 36 35 33 37 38 39 41 39 45 44 44 39 39 36 40 38 38 39 39 38 37 36 34 33 32 32
4 7 3 0 3 4 3 8 3 17 14 14 16 16 22 27 32 34 39 34 28 28 33 35 30 28 31 33 36 38 39 42 42 42 42 38 34 34 37 39 41 40 39 37 35 32 30 29 27
9 9 5 6 3 2 4 2 10 16 16 9 5 6 13 25 29 30 35 34 29 25 25 25 27 23 24 28 34 36 37 41 43 44 46 38 33 33 37 40 42 40 39 36 31 27 23 20 19
8 12 8 4 2 1 2 2 17 21 13 10 15 20 19 16 22 21 24 25 25 23 22 20 20 21 23 25 28 32 35 41 46 48 45 40 31 35 36 39 40 40 35 28 22 19 18 17 16
Wind_Direction
269 272 270 279 42 224 228 241 244 274 297 255 113 92 120 120 206 175 127 168 180 171 178 174 176 176 174 173 172 170 170 167 167 160 152 157 162 157 148 146 142 130 126 123 119 115 112 108 105
273 270 249 254 186 231 242 241 245 244 244 221 121 106 108 135 150 140 144 201 179 174 179 175 176 177 173 172 170 170 171 170 167 160 152 155 152 158 154 151 141 134 129 125 121 116 111 107 107
249 281 276 185 216 228 220 238 255 249 257 205 121 105 106 153 170 163 165 184 183 177 181 176 175 176 173 170 170 170 170 168 157 156 154 150 152 158 149 152 143 139 134 130 125 118 113 110 106
268 223 238 233 236 240 225 245 263 282 307 184 157 135 112 148 157 167 178 188 184 178 184 179 175 176 173 169 172 170 166 163 158 156 153 155 155 153 156 150 146 142 135 131 127 120 112 108 106
272 263 234 234 241 243 259 244 252 266 270 190 219 172 145 160 182 161 177 188 184 178 183 179 175 175 174 170 172 170 170 162 161 157 159 153 160 156 159 153 147 145 137 134 128 118 109 107 109
285 220 241 236 238 227 231 255 260 266 274 253 237 164 165 177 184 165 175 185 187 175 178 180 176 176 176 172 173 172 172 160 166 162 163 161 166 163 158 153 153 147 139 137 133 118 112 114 114
189 274 246 258 258 257 240 252 261 266 277 250 232 191 160 174 183 164 176 181 185 177 176 182 178 175 176 175 176 174 173 169 164 167 165 165 167 162 164 159 159 151 145 144 129 116 135 124 130
287 238 245 242 248 265 277 292 284 315 285 271 215 231 209 187 180 163 172 184 184 182 183 184 183 177 176 177 177 176 175 173 168 167 168 173 162 169 166 165 164 158 154 149 140 142 131 119 137
253 270 251 260 268 276 294 299 306 316 313 323 236 202 234 190 176 159 173 181 183 185 191 190 187 181 179 179 178 179 179 176 171 172 174 174 174 169 170 170 170 161 155 151 150 139 130 130 143
194 229 259 289 310 305 312 310 322 341 337 315 333 167 174 184 174 172 177 182 185 186 193 194 194 185 182 182 181 181 181 181 180 178 181 179 175 174 175 176 171 165 162 164 155 146 135 136 146
257 257 282 289 296 300 308 304 321 326 294 257 353 350 199 182 182 182 184 190 191 189 194 198 193 188 187 186 185 185 186 185 185 181 178 177 174 180 180 180 176 171 167 162 163 162 152 145 158
289 289 283 290 297 302 295 300 289 281 268 286 287 301 304 217 202 201 190 191 192 188 192 195 194 192 192 191 190 191 188 187 188 185 183 180 178 186 185 184 180 174 171 174 185 171 173 173 172
297 296 301 313 308 301 290 283 278 279 287 290 299 294 325 235 214 200 192 191 188 187 194 190 194 195 197 195 196 195 193 192 192 188 185 186 188 192 187 183 179 175 176 197 205 192 192 199 200
296 307 298 297 286 289 294 297 293 276 288 287 288 291 284 268 231 216 203 194 191 188 189 189 193 198 201 200 201 197 199 193 192 190 188 188 195 202 189 177 187 187 195 206 222 219 211 204 206
279 302 303 285 283 283 292 271 262 283 292 286 277 277 284 290 237 220 219 208 202 194 189 187 192 198 201 204 206 202 202 201 201 196 193 197 201 195 182 191 197 198 204 209 220 215 219 214 208
287 283 263 265 258 259 237 258 263 270 273 277 280 268 269 270 264 231 211 206 208 199 192 189 192 194 201 203 205 206 205 207 207 204 200 204 199 194 185 200 204 207 211 207 220 227 226 221 218
230 263 251 284 256 261 246 263 253 251 256 265 269 266 266 268 270 234 223 214 206 205 196 192 192 199 199 203 207 206 210 213 207 211 208 204 198 200 195 203 208 214 212 218 226 235 232 229 223
227 227 264 264 276 285 292 286 285 248 245 254 265 255 251 252 247 252 217 223 206 206 204 202 202 202 201 201 206 212 214 209 211 213 212 203 204 200 203 206 210 222 225 217 221 234 234 232 231
260 266 268 270 271 273 274 278 280 288 292 292 287 276 257 247 254 258 220 216 213 208 204 201 200 203 206 207 206 209 210 209 208 215 214 209 209 203 205 210 210 216 222 223 225 233 236 230 228
269 278 272 276 272 255 269 271 267 262 268 266 276 280 281 259 245 245 235 219 215 212 209 209 201 201 211 216 211 213 205 209 215 215 211 210 207 210 211 211 215 221 223 219 227 233 235 232 233
277 272 274 273 302 279 260 273 262 250 252 272 267 268 263 266 249 226 235 224 229 210 207 211 205 205 208 201 207 204 208 210 214 214 209 207 212 218 223 218 220 226 223 225 229 238 241 242 237
272 269 265 271 276 271 202 258 249 242 250 254 258 260 265 261 261 240 221 216 213 227 213 209 209 211 210 215 215 215 212 211 215 217 211 214 218 220 225 222 226 224 227 231 233 240 243 242 239
275 281 261 262 260 265 246 254 260 236 244 241 242 251 251 253 257 253 228 220 217 218 216 210 215 216 215 216 222 222 219 213 218 214 216 219 223 226 228 226 226 224 228 229 237 241 240 242 240
262 278 257 244 244 245 242 209 246 221 225 237 241 239 252 240 245 244 235 226 224 223 218 211 213 216 216 218 222 224 223 222 223 221 222 227 233 233 229 230 226 227 229 231 238 241 240 241 238
235 304 305 218 205 233 171 202 241 237 228 229 232 237 241 239 232 236 237 223 223 220 216 217 210 213 217 218 220 223 226 229 231 234 232 233 240 237 235 230 226 226 229 232 239 241 240 237 237
290 225 269 246 236 269 260 243 249 231 229 226 233 232 238 233 228 230 231 232 228 222 214 214 209 216 220 223 224 224 230 233 234 237 240 242 248 245 239 232 229 229 232 236 240 241 241 238 237
8 172 274 280 219 251 235 300 326 341 284 228 236 223 228 236 226 219 222 228 223 213 211 213 216 218 222 228 229 229 233 236 236 241 239 244 249 244 236 233 231 231 233 236 238 240 239 236 235
275 325 317 312 288 281 304 303 286 328 314 212 225 231 247 238 223 210 214 214 214 208 210 212 220 224 225 233 230 231 238 237 242 242 244 246 247 238 234 234 231 233 235 237 237 235 233 230 228
6 2 338 290 222 247 308 269 341 334 344 356 58 219 238 236 203 199 206 206 211 212 208 219 219 227 232 243 238 238 239 243 246 248 247 247 249 239 236 234 232 234 235 233 228 224 222 222 219
356 342 337 273 239 176 251 301 347 342 328 42 51 42 53 109 166 171 166 170 186 191 200 204 207 216 228 238 236 233 239 236 235 238 243 245 243 239 235 232 230 228 225 225 224 219 217 231 238
Height
1501 1502 1502 1501 1511 1505 1502 1490 1478 1476 1472 1465 1463 1465 1468 1468 1474 1484 1477 1479 1482 1486 1491 1495 1500 1504 1506 1508 1510 1514 1516 1518 1521 1525 1528 1530 1532 1534 1536 1538 1539 1540 1542 1543 1544 1545 1546 1548 1549
1499 1501 1501 1499 1506 1507 1496 1482 1479 1468 1464 1466 1462 1463 1466 1471 1472 1472 1475 1479 1483 1485 1490 1494 1499 1503 1506 1508 1509 1513 1516 1518 1519 1523 1527 1530 1533 1535 1536 1538 1539 1541 1542 1543 1545 1546 1547 1548 1549
1497 1499 1500 1498 1497 1486 1488 1477 1470 1465 1463 1464 1462 1462 1464 1468 1471 1471 1472 1478 1481 1484 1490 1493 1498 1503 1505 1507 1510 1512 1515 1518 1518 1522 1526 1530 1532 1535 1537 1538 1540 1541 1542 1544 1545 1546 1547 1548 1550
1496 1496 1496 1493 1480 1475 1474 1470 1464 1466 1464 1460 1458 1461 1464 1465 1467 1469 1472 1476 1479 1483 1489 1493 1497 1503 1505 1507 1510 1512 1514 1517 1519 1521 1525 1528 1532 1534 1536 1538 1540 1541 1543 1544 1545 1547 1548 1549 1550
1494 1493 1492 1484 1471 1472 1470 1468 1463 1465 1463 1461 1460 1460 1462 1464 1466 1470 1471 1474 1478 1481 1487 1492 1496 1501 1505 1506 1510 1512 1514 1516 1521 1521 1525 1528 1531 1534 1536 1538 1540 1542 1543 1545 1546 1547 1548 1550 1551
1492 1488 1489 1473 1469 1467 1465 1464 1460 1462 1460 1457 1460 1459 1461 1462 1463 1468 1468 1472 1476 1479 1485 1491 1495 1499 1504 1506 1509 1512 1514 1516 1520 1522 1524 1527 1530 1533 1535 1538 1540 1542 1543 1545 1546 1547 1548 1550 1551
1490 1488 1476 1471 1470 1466 1463 1462 1458 1459 1458 1456 1458 1458 1461 1460 1461 1467 1468 1473 1474 1480 1484 1489 1493 1497 1503 1505 1508 1511 1514 1516 1519 1522 1523 1527 1529 1532 1535 1537 1539 1541 1543 1545 1546 1548 1549 1550 1551
1486 1485 1474 1467 1469 1467 1463 1460 1458 1459 1455 1454 1450 1459 1460 1458 1460 1463 1469 1471 1474 1478 1482 1487 1491 1495 1500 1504 1507 1510 1513 1515 1518 1521 1524 1526 1529 1532 1535 1537 1539 1541 1543 1544 1546 1547 1548 1549 1550
1483 1486 1469 1467 1471 1468 1464 1461 1458 1457 1458 1453 1450 1447 1454 1455 1459 1461 1463 1470 1474 1476 1480 1484 1488 1492 1497 1501 1505 1509 1512 1514 1517 1520 1523 1525 1528 1531 1534 1536 1538 1540 1543 1544 1545 1547 1548 1549 1550
1479 1479 1471 1468 1467 1467 1465 1463 1461 1457 1453 1448 1450 1449 1450 1453 1460 1458 1456 1461 1466 1471 1476 1481 1485 1489 1494 1499 1503 1507 1510 1513 1515 1519 1521 1524 1528 1531 1533 1535 1538 1540 1542 1543 1545 1546 1547 1548 1550
1474 1471 1469 1467 1465 1464 1464 1461 1461 1458 1453 1452 1457 1456 1452 1450 1451 1459 1457 1457 1460 1465 1474 1478 1482 1487 1491 1495 1501 1505 1508 1512 1513 1517 1521 1524 1527 1530 1532 1534 1537 1539 1541 1542 1543 1545 1546 1548 1549
1476 1470 1468 1466 1464 1462 1461 1460 1455 1456 1453 1454 1451 1455 1453 1449 1441 1453 1453 1454 1458 1463 1469 1476 1480 1484 1489 1493 1498 1503 1507 1509 1513 1516 1520 1523 1525 1528 1531 1534 1536 1538 1540 1541 1542 1544 1545 1546 1548
1472 1468 1465 1464 1462 1460 1457 1454 1452 1442 1451 1452 1449 1450 1450 1448 1446 1446 1449 1451 1456 1461 1464 1472 1477 1482 1485 1490 1494 1500 1504 1507 1511 1514 1518 1521 1524 1527 1530 1532 1535 1537 1539 1540 1541 1543 1544 1544 1545
1470 1468 1464 1461 1459 1458 1457 1452 1451 1435 1447 1447 1447 1448 1447 1445 1443 1443 1445 1451 1451 1458 1463 1466 1474 1478 1483 1486 1491 1497 1501 1506 1509 1512 1516 1519 1522 1526 1529 1531 1533 1534 1536 1538 1540 1541 1541 1542 1543
1469 1468 1462 1457 1454 1454 1454 1449 1440 1442 1440 1438 1439 1440 1440 1444 1441 1440 1439 1447 1448 1452 1459 1465 1470 1475 1479 1484 1490 1494 1498 1503 1506 1509 1513 1516 1520 1524 1527 1530 1532 1533 1534 1536 1538 1538 1538 1539 1540
1470 1469 1464 1447 1450 1446 1451 1438 1440 1444 1438 1433 1432 1433 1434 1434 1439 1438 1439 1444 1450 1451 1455 1461 1467 1471 1475 1480 1486 1491 1495 1499 1503 1506 1509 1513 1517 1521 1524 1527 1529 1530 1532 1534 1535 1535 1536 1536 1537
1466 1465 1459 1451 1444 1443 1443 1434 1434 1436 1433 1427 1425 1426 1428 1429 1431 1434 1435 1442 1445 1449 1452 1457 1463 1467 1472 1477 1483 1488 1492 1496 1499 1503 1506 1509 1513 1517 1521 1524 1526 1528 1530 1531 1532 1533 1534 1534 1534
1462 1460 1449 1447 1435 1437 1436 1431 1430 1429 1426 1422 1421 1423 1423 1426 1428 1432 1433 1435 1442 1445 1449 1454 1460 1463 1468 1474 1479 1485 1488 1491 1496 1499 1502 1506 1509 1512 1517 1520 1523 1525 1526 1528 1529 1530 1530 1532 1532
1449 1448 1445 1438 1434 1436 1431 1428 1427 1425 1422 1420 1416 1416 1415 1415 1424 1430 1431 1431 1439 1442 1444 1448 1454 1459 1464 1467 1471 1477 1481 1486 1491 1495 1497 1501 1504 1509 1512 1516 1517 1519 1521 1524 1525 1526 1527 1527 1528
1443 1441 1440 1428 1430 1434 1427 1422 1420 1419 1417 1416 1413 1412 1412 1412 1416 1423 1426 1427 1431 1437 1441 1444 1449 1454 1459 1462 1468 1474 1477 1483 1489 1492 1494 1497 1500 1505 1508 1510 1512 1514 1517 1519 1520 1521 1522 1523 1523
1439 1437 1432 1429 1428 1423 1422 1420 1414 1409 1408 1406 1405 1403 1409 1410 1410 1414 1417 1418 1422 1429 1436 1441 1444 1448 1454 1458 1465 1471 1475 1481 1485 1487 1489 1492 1497 1500 1502 1505 1508 1510 1511 1513 1515 1517 1518 1518 1519
1435 1427 1426 1427 1431 1423 1416 1416 1405 1402 1402 1399 1398 1397 1392 1399 1404 1406 1409 1412 1416 1425 1431 1436 1440 1443 1449 1455 1461 1465 1467 1472 1476 1479 1484 1488 1492 1495 1498 1501 1503 1506 1507 1508 1510 1512 1513 1513 1513
1427 1422 1421 1420 1420 1419 1415 1418 1400 1397 1395 1391 1389 1388 1389 1392 1394 1399 1405 1409 1413 1420 1425 1431 1436 1440 1445 1450 1457 1461 1465 1469 1472 1477 1481 1484 1487 1490 1493 1496 1499 1501 1502 1504 1505 1505 1506 1508 1509
1420 1418 1414 1412 1412 1407 1399 1410 1389 1386 1378 1380 1380 1380 1380 1386 1391 1397 1402 1406 1408 1415 1420 1425 1431 1436 1441 1446 1452 1455 1459 1464 1467 1471 1474 1478 1482 1485 1488 1490 1493 1495 1497 1498 1500 1501 1500 1501 1502
1418 1416 1408 1411 1407 1417 1385 1396 1375 1367 1367 1368 1369 1372 1374 1375 1382 1389 1394 1398 1405 1409 1416 1422 1427 1432 1437 1442 1446 1449 1453 1458 1462 1466 1468 1472 1474 1477 1480 1483 1487 1489 1491 1492 1494 1493 1494 1494 1493
1417 1419 1422 1428 1426 1412 1383 1396 1363 1354 1354 1356 1359 1363 1368 1369 1374 1380 1388 1394 1398 1404 1411 1418 1422 1428 1432 1437 1441 1446 1450 1452 1456 1459 1462 1466 1468 1470 1475 1477 1480 1483 1485 1486 1487 1487 1487 1488 1488
1410 1412 1401 1406 1410 1396 1375 1362 1353 1352 1351 1350 1353 1357 1360 1364 1367 1375 1385 1391 1397 1402 1407 1413 1418 1423 1429 1434 1439 1443 1445 1447 1450 1452 1456 1458 1461 1463 1467 1470 1474 1477 1478 1480 1480 1482 1482 1482 1483
1418 1416 1399 1402 1403 1393 1375 1376 1364 1362 1343 1340 1348 1351 1355 1358 1362 1371 1381 1390 1395 1401 1407 1412 1417 1421 1426 1431 1435 1439 1440 1443 1445 1447 1448 1451 1455 1457 1461 1465 1467 1470 1472 1473 1474 1475 1476 1477 1478
1422 1420 1414 1404 1390 1391 1382 1374 1375 1367 1353 1347 1345 1345 1348 1350 1358 1368 1378 1388 1395 1399 1405 1410 1416 1421 1425 1429 1432 1435 1437 1439 1440 1440 1442 1441 1449 1452 1456 1460 1463 1464 1465 1466 1467 1468 1473 1475 1476
1431 1431 1427 1412 1387 1387 1386 1378 1379 1371 1360 1351 1349 1352 1348 1350 1359 1369 1376 1385 1391 1397 1404 1410 1416 1421 1424 1428 1430 1432 1434 1435 1435 1434 1437 1438 1443 1449 1452 1455 1457 1456 1456 1459 1464 1467 1474 1474 1475